CW8826 Weather Reports


Display with metric or nautical units.
time (UTC)temp
F
wind
direction
speed
MPH
gust
MPH
rain 1hr
in
rain 24hr
in
rain mn
in
humidity
%
barometer
mb
20260506132017 43 90 5.0 12.0 0.00 0.20 0.19 47 1017.8
20260506131017 44 90 6.0 12.0 0.00 0.20 0.19 46 1017.5
20260506130017 44 113 7.0 18.0 0.00 0.20 0.19 48 1017.3
20260506125016 46 68 7.0 14.0 0.00 0.20 0.19 38 1017.4
20260506124016 46 68 6.0 10.0 0.00 0.20 0.19 39 1017.3
20260506123056 46 68 6.0 12.0 0.00 0.20 0.19 40 1017.1
20260506122016 45 90 8.0 15.0 0.00 0.20 0.19 42 1016.6
20260506121017 45 90 5.0 11.0 0.00 0.20 0.19 51 1016.6
20260506120016 45 68 7.0 10.0 0.00 0.20 0.19 50 1016.4
20260506115017 44 68 10.0 15.0 0.00 0.20 0.19 57 1016.5
20260506114057 44 45 10.0 19.0 0.00 0.20 0.19 56 1016.4
20260506113017 45 90 8.0 17.0 0.00 0.20 0.19 56 1015.5
20260506112019 45 90 12.0 19.0 0.00 0.20 0.19 51 1015.4
20260506111016 44 68 12.0 22.0 0.00 0.20 0.19 56 1014.9
20260506110016 43 45 13.0 20.0 0.00 0.20 0.19 59 1014.5
20260506105017 43 68 12.0 23.0 0.00 0.20 0.19 60 1014.7
20260506104016 43 45 14.0 25.0 0.00 0.20 0.19 59 1014.3
20260506103017 43 68 15.0 26.0 0.00 0.20 0.19 59 1014.1
20260506102016 43 68 18.0 30.0 0.00 0.20 0.19 62 1013.8
20260506101017 43 45 18.0 28.0 0.00 0.20 0.19 63 1013.7
20260506100016 43 45 17.0 30.0 0.00 0.20 0.19 62 1013.3
20260506095037 43 45 18.0 27.0 0.00 0.20 0.19 72 1013.2
20260506094016 40 45 16.0 25.0 0.01 0.20 0.19 91 1012.5
20260506093016 40 45 19.0 29.0 0.11 0.20 0.19 92 1012.5
20260506092037 40 68 17.0 27.0 0.15 0.20 0.19 91 1012.5
20260506091016 39 45 16.0 31.0 0.15 0.20 0.19 91 1012.1
20260506090137 39 45 16.0 27.0 0.15 0.20 0.19 92 1011.7
20260506085017 39 45 16.0 26.0 0.15 0.20 0.19 92 1011.8
20260506084016 39 68 12.0 21.0 0.14 0.19 0.18 90 1012.1
20260506083036 42 45 11.0 24.0 0.04 0.09 0.08 77 1012.5
20260506082017 44 68 14.0 26.0 0.00 0.05 0.04 71 1012.3
20260506081016 47 68 8.0 18.0 0.00 0.05 0.04 68 1012.1
20260506073016 48 68 6.0 11.0 0.03 0.05 0.04 76 1011.2
20260506072056 48 113 7.0 11.0 0.04 0.05 0.04 79 1011.4
20260506071016 48 90 8.0 12.0 0.04 0.05 0.04 78 1011.6
20260506062037 50 0.0 2.0 0.00 0.01 0.00 73 1011.7
20260506061016 51 113 1.0 4.0 0.00 0.01 0.00 64 1011.2
20260506051037 51 113 9.0 14.0 0.00 0.01 0.01 58 1010.2
20260506045017 51 113 8.0 13.0 0.00 0.01 0.01 57 1009.7
20260506044018 50 113 8.0 15.0 0.00 0.01 0.01 60 1009.5
20260506043017 50 113 7.0 11.0 0.00 0.01 0.01 61 1009.4
20260506042017 51 113 6.0 14.0 0.00 0.01 0.01 60 1009.5
20260506041017 52 113 6.0 11.0 0.00 0.01 0.01 57 1009.8
20260506040017 52 113 6.0 12.0 0.00 0.01 0.01 58 1009.8
20260506035018 51 113 5.0 14.0 0.00 0.01 0.01 61 1009.4
20260506034017 52 90 4.0 9.0 0.00 0.01 0.01 59 1009.4
20260506033017 52 90 6.0 12.0 0.00 0.01 0.01 59 1008.9
20260506032017 52 113 7.0 11.0 0.00 0.01 0.01 60 1009.0
20260506031017 53 113 6.0 11.0 0.00 0.01 0.01 57 1009.2
20260506030017 53 113 3.0 8.0 0.00 0.01 0.01 58 1009.1
20260506025037 53 135 2.0 6.0 0.00 0.01 0.01 57 1008.8
20260506024037 54 113 5.0 11.0 0.00 0.01 0.01 57 1008.8
20260506023017 56 90 3.0 6.0 0.00 0.01 0.01 53 1008.6
20260506022017 57 270 1.0 4.0 0.00 0.01 0.01 52 1008.7
20260506021018 58 90 2.0 6.0 0.00 0.01 0.01 50 1009.0
20260506020017 58 225 2.0 5.0 0.00 0.01 0.01 49 1008.6
20260506015017 59 248 3.0 5.0 0.00 0.01 0.01 47 1009.0
20260506014018 60 248 2.0 4.0 0.00 0.01 0.01 45 1009.0
20260506013017 61 270 1.0 3.0 0.00 0.01 0.01 42 1009.2
20260506012038 61 248 2.0 4.0 0.00 0.01 0.01 41 1009.2
20260506011017 61 225 2.0 3.0 0.00 0.01 0.01 41 1009.3
20260506010017 61 270 1.0 4.0 0.00 0.01 0.01 41 1009.6
20260506005018 61 225 2.0 4.0 0.00 0.01 0.01 41 1009.7
20260506004017 61 270 2.0 4.0 0.00 0.01 0.01 42 1009.7
20260506003037 60 248 2.0 6.0 0.00 0.01 0.01 43 1009.7
20260506002017 60 135 2.0 4.0 0.00 0.01 0.01 45 1009.7
20260506001017 60 293 2.0 7.0 0.00 0.01 0.01 47 1009.5
20260506000017 60 135 2.0 5.0 0.00 0.01 0.01 48 1009.8
20260505235018 59 248 4.0 9.0 0.00 0.01 0.01 48 1009.8
20260505234018 59 248 2.0 4.0 0.00 0.01 0.01 46 1009.7
20260505233037 60 180 2.0 8.0 0.00 0.01 0.01 49 1009.8
20260505232017 58 248 2.0 5.0 0.00 0.01 0.01 52 1009.6
20260505231017 57 293 1.0 4.0 0.00 0.01 0.01 55 1009.6
20260505230017 55 135 2.0 6.0 0.00 0.01 0.01 59 1009.5
20260505225057 55 90 5.0 10.0 0.00 0.01 0.01 59 1009.5
20260505224018 54 135 6.0 10.0 0.01 0.01 0.01 59 1009.7
20260505223017 54 45 3.0 8.0 0.01 0.01 0.01 60 1009.8
20260505222017 54 113 2.0 5.0 0.01 0.01 0.01 61 1009.6
20260505221018 53 45 7.0 14.0 0.01 0.01 0.01 62 1009.6
20260505220017 52 45 3.0 11.0 0.01 0.02 0.01 65 1009.4
20260505215037 51 68 4.0 9.0 0.01 0.02 0.01 66 1009.6
20260505214017 52 45 3.0 9.0 0.00 0.03 0.00 62 1009.6
20260505213017 52 90 4.0 8.0 0.00 0.07 0.00 61 1009.5
20260505212057 52 45 3.0 7.0 0.00 0.08 0.00 64 1009.5
20260505211017 53 45 3.0 7.0 0.00 0.08 0.00 64 1009.7
20260505210016 53 315 3.0 7.0 0.00 0.08 0.00 68 1009.8
20260505205017 54 23 2.0 6.0 0.00 0.08 0.00 63 1009.6
20260505204016 54 0 2.0 4.0 0.00 0.08 0.00 61 1009.9
20260505203016 54 338 2.0 7.0 0.00 0.08 0.00 61 1009.9
20260505202016 54 315 2.0 7.0 0.00 0.08 0.00 59 1010.0
20260505201017 54 338 3.0 5.0 0.00 0.08 0.00 59 1009.9
20260505200016 55 248 2.0 6.0 0.00 0.08 0.00 59 1009.9
20260505195037 55 158 2.0 5.0 0.00 0.08 0.00 55 1009.8
20260505194037 54 293 3.0 8.0 0.00 0.08 0.00 58 1009.8
20260505193016 54 338 3.0 8.0 0.00 0.08 0.00 60 1009.6
20260505192017 54 315 1.0 5.0 0.00 0.08 0.00 56 1009.5
20260505191016 53 0.0 1.0 0.00 0.08 0.00 54 1009.5
20260505190017 53 0.0 2.0 0.00 0.08 0.00 54 1009.4
20260505185037 53 0.0 3.0 0.00 0.08 0.00 52 1009.4
20260505184017 54 225 3.0 8.0 0.00 0.08 0.00 52 1009.4
20260505183017 54 248 1.0 5.0 0.00 0.08 0.00 52 1009.3
20260505182016 54 293 2.0 6.0 0.00 0.08 0.00 51 1009.2
20260505181021 54 248 3.0 9.0 0.00 0.08 0.00 51 1009.2
20260505180017 54 248 2.0 7.0 0.00 0.08 0.00 53 1009.4
20260505175017 53 248 2.0 8.0 0.00 0.08 0.00 54 1009.2
20260505174017 53 225 4.0 10.0 0.00 0.08 0.00 54 1009.1
20260505173016 53 225 3.0 8.0 0.00 0.08 0.00 54 1009.7
20260505172037 53 225 4.0 9.0 0.00 0.08 0.00 54 1009.7
20260505171016 53 225 6.0 13.0 0.00 0.08 0.00 54 1009.5
20260505170017 53 225 7.0 15.0 0.00 0.08 0.00 54 1009.5
20260505165016 53 225 5.0 11.0 0.00 0.08 0.00 54 1009.4
20260505164016 53 225 4.0 9.0 0.00 0.08 0.00 53 1009.4
20260505163016 53 248 3.0 6.0 0.00 0.08 0.00 53 1009.8
20260505162018 53 225 1.0 4.0 0.00 0.08 0.00 56 1009.6
20260505161017 52 135 1.0 4.0 0.00 0.08 0.00 57 1009.2
20260505153036 52 315 2.0 5.0 0.00 0.08 0.00 63 1009.2
20260505152037 52 0.0 1.0 0.00 0.08 0.00 64 1009.2
20260505151016 52 113 1.0 3.0 0.00 0.08 0.00 67 1009.1